Location: Bagnolo San Vito
(45.0833°N, 10.8833°E)
Time: 00:16:40
(UTC+00:00)

CSL-04 Rocket - Pass Details

Date: 03 March 2021
Orbit: 805 x 861 km, 98.9° (Epoch: 17 April)

Event Time Altitude Azimuth Distance (km) Brightness Sun altitude
Rises 18:20:49 0° 163° (SSE) 3,424 6.6 -13.9°
Reaches altitude 10° 18:23:11 10° 163° (SSE) 2,490 5.9 -14.3°
Maximum altitude 18:28:45 89° 71° (ENE) 863 3.7 -15.3°
Drops below altitude 10° 18:34:17 10° 346° (NNW) 2,486 6.4 -16.2°
Sets 18:36:39 0° 346° (NNW) 3,419 7.1 -16.7°
